When you browse on this site, cookies collect data to enhance your experience and personalize the content and advertising you see.
Visit our Privacy Policy to learn more. By continuing to use the site, you agree to this use of cookies and data.
  • In Romania
  • List of Countries
  • For 7 days
  • Water Temperature
  • Weather Map
  • Weather Widgets
  • user-avatar
    Login

    Hourly Weather Porto Alegre

    Today, 27 February, Thursday

    Time Temperature Precipitation Wind Pressure Humidity
    00:00 +20°C° 0 mm 1 mps 758 mmHg 67%
    01:00 +20°C° 0 mm 1 mps 758 mmHg 68%
    02:00 +20°C° 0 mm 1 mps 758 mmHg 70%
    03:00 +17°C° 0 mm 0 mps 758 mmHg 71%
    04:00 +19°C° 0 mm 1 mps 758 mmHg 73%
    05:00 +19°C° 0 mm 1 mps 758 mmHg 75%
    06:00 +18°C° 0 mm 1 mps 758 mmHg 76%
    07:00 +20°C° 0 mm 1 mps 758 mmHg 70%
    08:00 +21°C° 0 mm 1 mps 758 mmHg 64%
    09:00 +23°C° 0 mm 1 mps 759 mmHg 58%
    10:00 +25°C° 0 mm 1 mps 759 mmHg 53%
    11:00 +26°C° 0 mm 1 mps 759 mmHg 47%
    12:00 +28°C° 0 mm 2 mps 759 mmHg 42%
    13:00 +28°C° 0 mm 2 mps 758 mmHg 41%
    14:00 +28°C° 0 mm 2 mps 758 mmHg 41%
    15:00 +29°C° 0 mm 3 mps 757 mmHg 40%
    16:00 +28°C° 0 mm 3 mps 757 mmHg 43%
    17:00 +27°C° 0 mm 3 mps 757 mmHg 45%
    18:00 +26°C° 0 mm 4 mps 757 mmHg 47%
    19:00 +24°C° 0 mm 3 mps 758 mmHg 52%
    20:00 +22°C° 0 mm 3 mps 758 mmHg 57%
    21:00 +21°C° 0 mm 3 mps 759 mmHg 62%
    22:00 +21°C° 0 mm 3 mps 759 mmHg 64%
    23:00 +20°C° 0 mm 2 mps 759 mmHg 66%

    Tomorrow, 28 February, Friday

    Time Temperature Precipitation Wind Pressure Humidity
    00:00 +20°C° 0 mm 2 mps 759 mmHg 69%
    01:00 +19°C° 0 mm 2 mps 759 mmHg 70%
    02:00 +20°C° 0 mm 1 mps 759 mmHg 72%
    03:00 +19°C° 0 mm 1 mps 759 mmHg 73%
    04:00 +19°C° 0 mm 1 mps 759 mmHg 74%
    05:00 +19°C° 0 mm 1 mps 759 mmHg 74%
    06:00 +19°C° 0 mm 1 mps 759 mmHg 74%
    07:00 +20°C° 0 mm 1 mps 759 mmHg 67%
    08:00 +22°C° 0 mm 1 mps 760 mmHg 60%
    09:00 +24°C° 0 mm 1 mps 760 mmHg 54%
    10:00 +26°C° 0 mm 1 mps 760 mmHg 47%
    11:00 +29°C° 0 mm 1 mps 760 mmHg 40%
    12:00 +31°C° 0 mm 1 mps 760 mmHg 33%
    13:00 +31°C° 0 mm 2 mps 759 mmHg 32%
    14:00 +31°C° 0 mm 2 mps 759 mmHg 30%
    15:00 +33°C° 0 mm 3 mps 759 mmHg 29%
    16:00 +30°C° 0 mm 3 mps 759 mmHg 33%
    17:00 +29°C° 0 mm 4 mps 759 mmHg 38%
    18:00 +28°C° 0 mm 4 mps 759 mmHg 42%
    19:00 +26°C° 0 mm 4 mps 759 mmHg 48%
    20:00 +25°C° 0 mm 4 mps 760 mmHg 53%
    21:00 +22°C° 0 mm 4 mps 760 mmHg 58%
    22:00 +22°C° 0 mm 3 mps 760 mmHg 62%
    23:00 +21°C° 0 mm 3 mps 760 mmHg 66%

    Day after tomorrow, 29 February, Saturday

    Time Temperature Precipitation Wind Pressure Humidity
    00:00 +21°C° 0 mm 3 mps 760 mmHg 70%
    01:00 +20°C° 0 mm 2 mps 760 mmHg 72%
    02:00 +19°C° 0 mm 2 mps 760 mmHg 74%
    03:00 +20°C° 0 mm 1 mps 760 mmHg 76%
    04:00 +20°C° 0 mm 1 mps 760 mmHg 76%
    05:00 +19°C° 0 mm 1 mps 760 mmHg 76%
    06:00 +19°C° 0 mm 1 mps 760 mmHg 76%
    07:00 +21°C° 0 mm 1 mps 761 mmHg 69%
    08:00 +23°C° 0 mm 1 mps 761 mmHg 63%
    09:00 +25°C° 0 mm 1 mps 761 mmHg 56%
    10:00 +27°C° 0 mm 2 mps 761 mmHg 50%
    11:00 +29°C° 0 mm 2 mps 761 mmHg 43%
    12:00 +31°C° 0 mm 2 mps 761 mmHg 37%
    13:00 +31°C° 0 mm 3 mps 761 mmHg 36%
    14:00 +32°C° 0 mm 4 mps 761 mmHg 36%
    15:00 +32°C° 0 mm 5 mps 760 mmHg 36%
    16:00 +30°C° 0 mm 5 mps 760 mmHg 42%
    17:00 +29°C° 0 mm 5 mps 760 mmHg 48%
    18:00 +28°C° 0 mm 4 mps 760 mmHg 54%
    19:00 +26°C° 0 mm 4 mps 761 mmHg 60%
    20:00 +25°C° 0 mm 4 mps 762 mmHg 66%
    21:00 +24°C° 0 mm 3 mps 762 mmHg 72%
    22:00 +22°C° 0 mm 3 mps 762 mmHg 74%
    23:00 +22°C° 0 mm 3 mps 762 mmHg 76%

    1 March, Sunday

    Time Temperature Precipitation Wind Pressure Humidity
    00:00 +21°C° 0 mm 3 mps 762 mmHg 79%
    01:00 +21°C° 0 mm 2 mps 762 mmHg 80%
    02:00 +21°C° 0 mm 2 mps 762 mmHg 81%
    03:00 +20°C° 0 mm 2 mps 762 mmHg 82%
    04:00 +20°C° 0 mm 2 mps 762 mmHg 83%
    05:00 +21°C° 0 mm 1 mps 762 mmHg 83%
    06:00 +21°C° 0 mm 1 mps 762 mmHg 84%
    07:00 +22°C° 0 mm 1 mps 763 mmHg 77%
    08:00 +24°C° 0 mm 2 mps 763 mmHg 70%
    09:00 +25°C° 0 mm 2 mps 763 mmHg 63%
    10:00 +27°C° 0 mm 2 mps 763 mmHg 57%
    11:00 +28°C° 0 mm 3 mps 763 mmHg 51%
    12:00 +30°C° 0 mm 3 mps 763 mmHg 45%
    13:00 +30°C° 0 mm 4 mps 763 mmHg 45%
    14:00 +30°C° 0 mm 4 mps 762 mmHg 44%
    15:00 +32°C° 0 mm 5 mps 762 mmHg 44%
    16:00 +30°C° 0 mm 5 mps 761 mmHg 48%
    17:00 +29°C° 0 mm 6 mps 761 mmHg 52%
    18:00 +27°C° 0 mm 6 mps 761 mmHg 56%
    19:00 +26°C° 0 mm 5 mps 762 mmHg 62%
    20:00 +25°C° 0 mm 5 mps 762 mmHg 68%
    21:00 +23°C° 0 mm 5 mps 763 mmHg 74%
    22:00 +23°C° 0 mm 5 mps 763 mmHg 76%
    23:00 +22°C° 0 mm 4 mps 763 mmHg 78%

    2 March, Monday

    Time Temperature Precipitation Wind Pressure Humidity
    00:00 +22°C° 0 mm 4 mps 763 mmHg 81%
    01:00 +21°C° 0 mm 3 mps 762 mmHg 81%
    02:00 +21°C° 0 mm 3 mps 762 mmHg 82%
    03:00 +21°C° 0 mm 3 mps 761 mmHg 83%
    04:00 +20°C° 0 mm 2 mps 762 mmHg 84%
    05:00 +20°C° 0 mm 2 mps 762 mmHg 84%
    06:00 +21°C° 0 mm 1 mps 762 mmHg 85%
    07:00 +22°C° 0 mm 1 mps 762 mmHg 78%
    08:00 +24°C° 0 mm 1 mps 762 mmHg 70%
    09:00 +26°C° 0 mm 1 mps 762 mmHg 62%
    10:00 +27°C° 0 mm 2 mps 762 mmHg 57%
    11:00 +29°C° 0 mm 2 mps 762 mmHg 51%
    12:00 +30°C° 0 mm 3 mps 762 mmHg 45%
    13:00 +31°C° 0 mm 3 mps 761 mmHg 46%
    14:00 +32°C° 0 mm 4 mps 761 mmHg 47%
    15:00 +32°C° 0 mm 5 mps 760 mmHg 49%
    16:00 +30°C° 0 mm 5 mps 760 mmHg 53%
    17:00 +29°C° 0 mm 5 mps 760 mmHg 57%
    18:00 +28°C° 0 mm 5 mps 759 mmHg 62%
    19:00 +27°C° 0 mm 5 mps 760 mmHg 66%
    20:00 +25°C° 0 mm 5 mps 760 mmHg 71%
    21:00 +23°C° 0 mm 5 mps 760 mmHg 76%
    22:00 +23°C° 0 mm 5 mps 760 mmHg 77%
    23:00 +23°C° 0 mm 4 mps 760 mmHg 78%

    3 March, Tuesday

    Time Temperature Precipitation Wind Pressure Humidity
    00:00 +22°C° 0 mm 4 mps 760 mmHg 79%
    01:00 +22°C° 0 mm 3 mps 760 mmHg 81%
    02:00 +21°C° 0 mm 3 mps 760 mmHg 83%
    03:00 +21°C° 0 mm 2 mps 759 mmHg 85%
    04:00 +21°C° 0 mm 2 mps 759 mmHg 86%
    05:00 +21°C° 0 mm 1 mps 759 mmHg 87%
    06:00 +21°C° 0 mm 1 mps 760 mmHg 88%
    07:00 +23°C° 0 mm 1 mps 760 mmHg 80%
    08:00 +24°C° 0 mm 1 mps 760 mmHg 72%
    09:00 +26°C° 0 mm 1 mps 760 mmHg 65%
    10:00 +27°C° 0 mm 1 mps 760 mmHg 57%
    11:00 +29°C° 0 mm 2 mps 759 mmHg 49%
    12:00 +31°C° 0 mm 2 mps 759 mmHg 41%
    13:00 +31°C° 0 mm 3 mps 759 mmHg 42%
    14:00 +32°C° 0 mm 4 mps 758 mmHg 43%
    15:00 +32°C° 0 mm 4 mps 758 mmHg 43%
    16:00 +30°C° 0 mm 5 mps 758 mmHg 48%
    17:00 +29°C° 0 mm 5 mps 757 mmHg 52%
    18:00 +28°C° 0 mm 5 mps 757 mmHg 56%
    19:00 +27°C° 0 mm 4 mps 758 mmHg 63%
    20:00 +25°C° 0 mm 4 mps 758 mmHg 71%
    21:00 +23°C° 0 mm 4 mps 758 mmHg 78%
    22:00 +23°C° 0 mm 4 mps 758 mmHg 80%
    23:00 +22°C° 0 mm 3 mps 758 mmHg 82%
    Show more